Satellite-Ground Cal/Val Site Overpasses Predictions

Prediction of Satellite NPP Overpassing Cal/Val Site: Antarctic Dome C

Ground Cal/Val Site Location: Latitude: -75.10, Longitude: 123.35; Satellite-Ground Site NADIR distance within 100 km.

Table of predicted overpasses for the next 14.0 days since TLE Epoch: 6/8/2018
Interval Starting Time Ending Time Minimum Distance Time Minimum Distance (km)
1 06/09/2018 14:54:47 06/09/2018 14:55:16 06/09/2018 14:55:01 21.18
2 06/10/2018 14:36:05 06/10/2018 14:36:20 06/10/2018 14:36:13 85.88
3 06/11/2018 07:37:38 06/11/2018 07:38:05 06/11/2018 07:37:52 33.93
4 06/12/2018 07:18:52 06/12/2018 07:19:11 06/12/2018 07:19:01 76.30
5 06/14/2018 15:01:06 06/14/2018 15:01:30 06/14/2018 15:01:18 57.98
6 06/15/2018 14:42:16 06/15/2018 14:42:41 06/15/2018 14:42:29 51.14
7 06/16/2018 07:43:56 06/16/2018 07:44:17 06/16/2018 07:44:07 68.96
8 06/17/2018 07:25:04 06/17/2018 07:25:31 06/17/2018 07:25:18 39.09
9 06/19/2018 15:07:30 06/19/2018 15:07:38 06/19/2018 15:07:34 95.56
10 06/20/2018 14:48:29 06/20/2018 14:48:58 06/20/2018 14:48:44 15.72


NCC Satellite Cal/Val Overpasses Prediction Service
